Lid_Strength_Index
-1 -1 -1 -1 -1 -1 0 4 10 3 1 9 9 12 10 7 9 7 9 10 11 12 11 13 13 13 13 9 10 13 12 14 20 17 14 14 16 16 16 18 21 21 20 19
-1 -1 -1 -1 -1 -1 2 7 7 2 3 12 12 10 10 8 9 9 9 11 10 10 12 14 12 11 10 10 10 11 11 14 19 17 15 15 17 16 16 16 17 20 20 18
-1 -1 -1 -1 -1 -1 2 6 11 7 6 7 10 11 11 12 8 9 8 9 9 11 12 10 13 12 10 10 9 8 8 15 14 17 16 15 17 16 15 16 18 18 19 17
-1 -1 -1 -1 -1 -1 2 7 9 7 12 10 10 9 11 12 12 9 8 10 10 11 13 12 13 11 11 10 9 10 10 14 15 17 15 14 14 15 15 16 15 17 17 19
-1 -1 -1 -1 -1 -1 4 9 9 8 12 8 10 9 11 12 11 10 11 11 10 10 13 12 13 11 11 12 10 10 12 17 17 18 18 16 16 14 14 15 15 15 19 19
-1 -1 -1 -1 -1 -0 5 5 5 7 9 10 11 11 10 10 10 9 9 9 10 11 12 10 11 10 10 10 11 12 13 15 16 17 18 15 17 15 15 15 14 14 18 15
-1 -1 -1 -1 -1 -0 2 4 6 9 13 11 11 10 9 10 10 11 10 9 10 8 6 8 9 10 11 10 9 9 12 12 14 18 15 21 13 11 13 14 13 13 13 14
-1 -1 -1 -1 -1 -1 2 4 6 8 14 10 10 9 9 9 9 10 9 9 7 6 7 12 14 13 13 12 10 9 9 12 16 17 18 16 15 14 13 14 13 12 13 12
-1 -1 -1 -1 -1 -1 2 5 3 8 12 12 8 10 9 11 11 11 9 7 6 6 9 12 16 18 18 16 14 9 10 10 14 17 20 20 14 14 11 11 15 10 11 12
-0 -1 -1 -1 -1 -1 1 3 3 5 10 9 8 10 10 9 10 12 12 10 9 7 11 15 16 17 15 17 16 15 14 14 16 16 18 17 13 14 10 16 13 10 10 11
-0 -0 -0 -0 -0 -1 1 4 1 5 9 9 7 7 10 9 8 13 11 12 11 10 13 14 14 15 15 16 15 15 15 16 16 15 18 19 13 13 13 11 13 12 10 10
-0 -0 -0 -0 -0 -0 -0 5 1 2 6 9 5 6 6 5 5 7 9 10 12 8 11 11 12 14 15 14 18 13 17 13 15 13 14 13 11 12 11 12 12 12 11 11
-0 -0 -0 -0 -0 -0 1 4 3 4 6 7 8 8 6 4 4 4 9 9 7 9 7 10 10 13 12 16 15 16 14 12 14 13 12 13 12 13 12 12 12 13 12 11
-0 -0 -0 -0 -0 -0 0 3 2 4 8 13 12 5 6 5 3 4 4 5 5 6 8 11 11 13 10 12 13 13 13 12 15 15 14 13 13 12 12 12 12 12 12 11
0 1 0 0 -0 -0 2 2 2 3 7 13 14 7 6 5 4 4 4 5 6 7 10 13 13 11 11 11 12 13 12 12 13 14 12 12 12 12 11 12 12 12 12 12
0 1 -0 0 -0 0 3 6 2 1 3 9 12 11 7 6 5 5 5 5 6 6 8 11 13 11 9 13 14 12 11 11 11 12 11 12 12 12 12 12 13 13 12 12
0 0 -0 -0 -0 3 5 7 6 1 3 9 15 15 8 5 5 7 6 6 9 8 8 11 9 9 9 15 15 12 10 9 10 11 11 11 13 12 13 13 14 15 14 12
0 0 -0 -0 -0 1 4 2 0 1 6 10 17 17 11 5 8 9 6 7 7 8 10 10 11 10 10 14 12 10 10 10 11 12 11 11 13 15 16 15 13 14 15 15
-0 -0 -0 2 4 7 5 0 2 5 9 14 18 16 16 6 8 8 7 7 10 12 10 14 10 17 13 11 11 12 12 12 11 14 15 17 15 15 15 15 15 16 17 16
-0 4 8 10 5 0 1 4 6 7 13 17 19 18 12 9 12 11 13 12 14 15 15 11 11 16 12 15 16 16 16 16 15 14 16 18 17 15 15 14 15 15 16 17
6 13 14 5 2 6 9 11 10 12 13 17 20 16 12 10 13 16 12 14 16 17 17 14 14 18 14 18 18 18 19 19 18 18 15 14 13 14 16 16 15 16 16 18
7 6 5 6 9 12 13 15 15 14 18 18 17 14 12 11 10 13 13 16 16 17 16 15 22 18 22 22 21 21 21 21 20 19 15 15 14 14 15 16 16 17 19 19
9 8 11 10 13 17 21 17 22 21 20 18 16 15 13 13 12 15 15 16 17 18 20 21 22 23 23 23 22 23 22 22 19 18 17 18 19 18 18 19 18 18 18 19
12 14 16 17 17 25 26 25 24 21 19 17 14 16 15 18 18 19 17 21 20 21 23 21 26 27 26 24 23 22 23 21 20 20 21 21 21 20 18 18 18 18 19 19
18 16 17 23 24 27 29 29 25 21 19 17 16 16 15 21 19 21 20 20 18 21 24 29 29 28 28 27 26 25 23 22 21 21 22 22 22 22 23 21 20 20 21 21
24 26 24 25 22 23 25 26 25 21 21 17 14 14 19 23 20 21 25 21 20 26 31 31 30 28 28 28 28 26 24 22 23 23 22 22 22 23 24 23 23 23 22 22
27 28 31 30 28 28 28 28 25 21 22 18 19 16 21 24 28 30 34 30 33 34 32 31 31 31 30 28 28 27 25 23 24 24 23 23 22 21 22 25 26 26 26 26